User: anonymous   Login
Location: Radomski Observatory
(40.2854°N, 79.5145°W)
Time: 04:33:14
(UTC-04:00)
Language:

Cosmos 1072 Rocket - Orbit

View from above orbital plane
View from above orbital plane
View from above satellite
View from above satellite

Ground track
Ground track

The orbit data is extracted from the following two-line orbital elements,

1 11239U 79003B   17266.86355503  .00000062  00000-0  47513-4 0  9994
2 11239  82.9420  15.3206 0042007 116.6725 359.3160 13.75815205941425
Epoch (UTC): 23 September 2017 20:43:31
Eccentricity: 0.0042007
inclination: 82.9420°
perigee height: 948 km
apogee height: 1009 km
right ascension of ascending node: 15.3206°
argument of perigee: 116.6725°
revolutions per day: 13.75815205
mean anomaly at epoch: 359.3160°
orbit number at epoch: 94142

The dashed part of the orbit path shows where the satellite is in the earth's shadow,  

DLR